H1 CPF 2 NER 2024 1 13 9 013 01 glonass140 H2 1903001 9140 44299 2024 1 13 0 0 0 2024 1 16 23 45 0 900 1 1 0 0 0 1 H9 10 0 60322 0.00000 0 -1467744.449 21823936.658 -13091775.864 10 0 60322 900.00000 0 -1825378.550 23232133.035 -10335950.034 10 0 60322 1800.00000 0 -1991117.122 24321986.162 -7378982.914 10 0 60322 2700.00000 0 -2006854.637 25054542.622 -4278436.992 10 0 60322 3600.00000 0 -1921136.286 25402242.028 -1094655.772 10 0 60322 4500.00000 0 -1786847.463 25350054.515 2110418.906 10 0 60322 5400.00000 0 -1658721.565 24896109.522 5274459.466 10 0 60322 6300.00000 0 -1590773.015 24051789.885 8335970.647 10 0 60322 7200.00000 0 -1633765.324 22841287.959 11235488.441 10 0 60322 8100.00000 0 -1832822.249 21300643.254 13916736.099 10 0 60322 9000.00000 0 -2225283.642 19476302.872 16327714.556 10 0 60322 9900.00000 0 -2838896.880 17423265.901 18421706.173 10 0 60322 10800.00000 0 -3690420.273 15202890.081 20158172.887 10 0 60322 11700.00000 0 -4784697.254 12880452.691 21503532.176 10 0 60322 12600.00000 0 -6114240.239 10522567.438 22431796.810 10 0 60322 13500.00000 0 -7659341.666 8194564.497 22925067.228 10 0 60322 14400.00000 0 -9388707.805 5957941.882 22973868.122 10 0 60322 15300.00000 0 -11260589.280 3867992.923 22577323.741 10 0 60322 16200.00000 0 -13224361.775 1971707.003 21743169.300 10 0 60322 17100.00000 0 -15222491.928 306029.121 20487598.675 10 0 60322 18000.00000 0 -17192807.501 -1103450.950 18834951.456 10 0 60322 18900.00000 0 -19070978.387 -2243327.018 16817245.108 10 0 60322 19800.00000 0 -20793106.183 -3112689.202 14473560.746 10 0 60322 20700.00000 0 -22298315.322 -3722909.189 11849293.600 10 0 60322 21600.00000 0 -23531238.450 -4096907.904 8995281.813 10 0 60322 22500.00000 0 -24444292.745 -4267936.936 5966829.496 10 0 60322 23400.00000 0 -24999652.170 -4277925.297 2822642.164 10 0 60322 24300.00000 0 -25170832.971 -4175461.288 -376305.455 10 0 60322 25200.00000 0 -24943825.540 -4013494.699 -3567947.799 10 0 60322 26100.00000 0 -24317724.475 -3846856.421 -6690330.316 10 0 60322 27000.00000 0 -23304829.480 -3729700.506 -9682811.525 10 0 60322 27900.00000 0 -21930211.862 -3712977.161 -12487241.799 10 0 60322 28800.00000 0 -20230763.720 -3842044.098 -15049095.674 10 0 60322 29700.00000 0 -18253768.690 -4154518.047 -17318535.371 10 0 60322 30600.00000 0 -16055053.155 -4678458.255 -19251384.513 10 0 60322 31500.00000 0 -13696794.567 -5430959.938 -20809992.765 10 0 60322 32400.00000 0 -11245077.875 -6417218.457 -21963974.253 10 0 60322 33300.00000 0 -8767301.671 -7630105.251 -22690805.139 10 0 60322 34200.00000 0 -6329542.038 -9050274.945 -22976268.377 10 0 60322 35100.00000 0 -3993983.834 -10646800.763 -22814736.717 10 0 60322 36000.00000 0 -1816526.351 -12378312.958 -22209288.046 10 0 60322 36900.00000 0 155336.940 -14194593.744 -21171650.453 10 0 60322 37800.00000 0 1884276.365 -16038562.759 -19721977.637 10 0 60322 38700.00000 0 3344448.740 -17848570.396 -17888458.664 10 0 60322 39600.00000 0 4522330.056 -19560903.083 -15706769.318 10 0 60322 40500.00000 0 5417024.146 -21112395.336 -13219375.576 10 0 60322 41400.00000 0 6040035.472 -22443038.633 -10474702.729 10 0 60322 42300.00000 0 6414516.905 -23498476.997 -7526186.613 10 0 60322 43200.00000 0 6574025.712 -24232283.842 -4431225.881 10 0 60322 44100.00000 0 6560841.890 -24607923.810 -1250056.398 10 0 60322 45000.00000 0 6423921.585 -24600316.624 1955429.387 10 0 60322 45900.00000 0 6216573.842 -24196937.007 5122894.202 10 0 60322 46800.00000 0 5993960.492 -23398404.440 8190774.319 10 0 60322 47700.00000 0 5810526.355 -22218538.276 11099479.990 10 0 60322 48600.00000 0 5717469.493 -20683876.410 13792554.082 10 0 60322 49500.00000 0 5760359.207 -18832678.335 16217766.161 10 0 60322 50400.00000 0 5977002.811 -16713455.002 18328120.886 10 0 60322 51300.00000 0 6395651.262 -14383087.535 20082761.647 10 0 60322 52200.00000 0 7033619.165 -11904613.669 21447752.780 10 0 60322 53100.00000 0 7896376.985 -9344774.218 22396726.179 10 0 60322 54000.00000 0 8977153.385 -6771421.356 22911381.029 10 0 60322 54900.00000 0 10257064.283 -4250895.696 22981828.083 10 0 60322 55800.00000 0 11705763.333 -1845480.018 22606772.887 10 0 60322 56700.00000 0 13282586.979 388966.035 21793535.162 10 0 60322 57600.00000 0 14938146.849 2405093.748 20557904.409 10 0 60322 58500.00000 0 16616303.814 4165790.558 18923834.658 10 0 60322 59400.00000 0 18256442.258 5645472.705 16922983.989 10 0 60322 60300.00000 0 19795950.624 6830893.049 14594107.159 10 0 60322 61200.00000 0 21172805.579 7721431.711 11982312.354 10 0 60322 62100.00000 0 22328152.565 8328858.492 9138195.528 10 0 60322 63000.00000 0 23208775.361 8676577.830 6116868.174 10 0 60322 63900.00000 0 23769351.437 8798388.516 2976896.565 10 0 60322 64800.00000 0 23974398.512 8736810.635 -220827.652 10 0 60322 65700.00000 0 23799830.194 8541050.391 -3414264.090 10 0 60322 66600.00000 0 23234054.658 8264688.735 -6541424.866 10 0 60322 67500.00000 0 22278569.219 7963191.556 -9541577.167 10 0 60322 68400.00000 0 20948024.627 7691346.823 -12356423.701 10 0 60322 69300.00000 0 19269755.071 7500737.391 -14931237.770 10 0 60322 70200.00000 0 17282792.300 7437356.850 -17215930.649 10 0 60322 71100.00000 0 15036403.872 7539469.900 -19166030.143 10 0 60322 72000.00000 0 12588215.615 7835808.589 -20743550.956 10 0 60322 72900.00000 0 10001995.809 8344181.632 -21917739.639 10 0 60322 73800.00000 0 7345192.838 9070556.735 -22665679.314 10 0 60322 74700.00000 0 4686328.489 10008655.895 -22972742.104 10 0 60322 75600.00000 0 2092355.121 11140082.059 -22832880.139 10 0 60322 76500.00000 0 -373913.497 12434973.090 -22248749.121 10 0 60322 77400.00000 0 -2656190.818 13853156.641 -21231661.641 10 0 60322 78300.00000 0 -4706826.370 15345758.320 -19801370.748 10 0 60322 79200.00000 0 -6488547.186 16857196.193 -17985687.578 10 0 60322 80100.00000 0 -7975759.576 18327478.070 -15819940.171 10 0 60322 81000.00000 0 -9155357.508 19694705.023 -13346283.809 10 0 60322 81900.00000 0 -10027004.684 20897675.528 -10612876.295 10 0 60322 82800.00000 0 -10602879.662 21878480.103 -7672934.450 10 0 60322 83700.00000 0 -10906896.187 22584976.555 -4583690.694 10 0 60322 84600.00000 0 -10973433.195 22973040.878 -1405270.663 10 0 60322 85500.00000 0 -10845629.813 23008498.312 1800485.334 10 0 60323 0.00000 0 -10573319.149 22668652.803 4971232.885 10 0 60323 900.00000 0 -10210689.721 21943349.906 8045343.253 10 0 60323 1800.00000 0 -9813775.297 20835528.916 10963103.547 10 0 60323 2700.00000 0 -9437880.006 19361240.595 13667879.062 10 0 60323 3600.00000 0 -9135048.730 17549130.448 16107210.697 10 0 60323 4500.00000 0 -8951690.007 15439409.517 18233827.926 10 0 60323 5400.00000 0 -8926451.859 13082356.142 20006557.883 10 0 60323 6300.00000 0 -9088439.897 10536411.481 21391113.760 10 0 60323 7200.00000 0 -9455852.299 7865948.169 22360748.239 10 0 60323 8100.00000 0 -10035088.573 5138804.652 22896760.501 10 0 60323 9000.00000 0 -10820369.062 2423686.974 22988848.178 10 0 60323 9900.00000 0 -11793880.873 -212455.145 22635298.427 10 0 60323 10800.00000 0 -12926444.051 -2706970.388 21843015.268 10 0 60323 11700.00000 0 -14178670.337 -5003862.211 20627383.080 10 0 60323 12600.00000 0 -15502566.531 -7055863.363 19011969.057 10 0 60323 13500.00000 0 -16843516.073 -8826144.114 17028070.098 10 0 60323 14400.00000 0 -18142556.836 -10289584.762 14714112.376 10 0 60323 15300.00000 0 -19338860.622 -11433560.834 12114914.415 10 0 60323 16200.00000 0 -20372311.363 -12258209.400 9280827.074 10 0 60323 17100.00000 0 -21186074.548 -12776166.304 6266766.126 10 0 60323 18000.00000 0 -21729050.443 -13011785.910 3131155.389 10 0 60323 18900.00000 0 -21958108.092 -12999876.594 -65199.813 10 0 60323 19800.00000 0 -21840005.908 -12784005.330 -3260287.496 10 0 60323 20700.00000 0 -21352917.392 -12414442.944 -6392089.585 10 0 60323 21600.00000 0 -20487496.818 -11945836.763 -9399784.974 10 0 60323 22500.00000 0 -19247438.792 -11434709.012 -12224931.586 10 0 60323 23400.00000 0 -17649506.727 -10936886.821 -14812604.175 10 0 60323 24300.00000 0 -15723027.470 -10504972.741 -17112465.475 10 0 60323 25200.00000 0 -13508871.725 -10185963.097 -19079749.522 10 0 60323 26100.00000 0 -11057961.520 -10019115.373 -20676137.675 10 0 60323 27000.00000 0 -8429365.833 -10034155.423 -21870509.997 10 0 60323 27900.00000 0 -5688062.753 -10249901.025 -22639557.095 10 0 60323 28800.00000 0 -2902460.717 -10673360.785 -22968240.194 10 0 60323 29700.00000 0 -141781.383 -11299347.356 -22850090.188 10 0 60323 30600.00000 0 2526587.315 -12110622.258 -22287339.470 10 0 60323 31500.00000 0 5039658.056 -13078567.107 -21290883.592 10 0 60323 32400.00000 0 7341224.304 -14164353.705 -19880073.057 10 0 60323 33300.00000 0 9383954.879 -15320564.319 -18082338.907 10 0 60323 34200.00000 0 11131115.842 -16493194.139 -15932659.038 10 0 60323 35100.00000 0 12557848.300 -17623951.578 -13472875.466 10 0 60323 36000.00000 0 13651949.380 -18652759.195 -10750875.762 10 0 60323 36900.00000 0 14414124.600 -19520349.231 -7819654.879 10 0 60323 37800.00000 0 14857702.306 -20170843.600 -4736276.058 10 0 60323 38700.00000 0 15007823.642 -20554208.668 -1560751.726 10 0 60323 39600.00000 0 14900143.864 -20628480.421 1645132.897 10 0 60323 40500.00000 0 14579101.501 -20361665.470 4819029.678 10 0 60323 41400.00000 0 14095830.209 -19733237.152 7899246.407 10 0 60323 42300.00000 0 13505803.076 -18735163.393 10825950.069 10 0 60323 43200.00000 0 12866310.297 -17372422.926 13542330.536 10 0 60323 44100.00000 0 12233877.716 -15662988.245 15995701.844 10 0 60323 45000.00000 0 11661735.833 -13637276.165 18138519.710 10 0 60323 45900.00000 0 11197446.214 -11337089.197 19929296.046 10 0 60323 46800.00000 0 10880785.098 -8814092.025 21333393.520 10 0 60323 47700.00000 0 10741972.771 -6127886.596 22323685.808 10 0 60323 48600.00000 0 10800322.448 -3343765.575 22881071.906 10 0 60323 49500.00000 0 11063364.621 -530236.887 22994835.752 10 0 60323 50400.00000 0 11526482.914 2243578.843 22662845.208 10 0 60323 51300.00000 0 12173076.211 4910571.237 21891587.379 10 0 60323 52200.00000 0 12975239.986 7408176.252 20696040.062 10 0 60323 53100.00000 0 13894938.387 9680721.789 19099381.935 10 0 60323 54000.00000 0 14885618.263 11681487.139 17132546.888 10 0 60323 54900.00000 0 15894198.107 13374392.301 14833630.522 10 0 60323 55800.00000 0 16863349.195 14735248.264 12247159.617 10 0 60323 56700.00000 0 17733973.959 15752517.356 9423237.744 10 0 60323 57600.00000 0 18447778.146 16427552.848 6416582.680 10 0 60323 58500.00000 0 18949829.091 16774308.450 3285473.437 10 0 60323 59400.00000 0 19190992.651 16818530.297 90626.626 10 0 60323 60300.00000 0 19130146.034 16596465.607 -3105976.550 10 0 60323 61200.00000 0 18736072.782 16153142.422 -6242290.148 10 0 60323 62100.00000 0 17988959.169 15540292.904 -9257406.965 10 0 60323 63000.00000 0 16881427.781 14814007.764 -12092742.152 10 0 60323 63900.00000 0 15419063.268 14032220.836 -14693173.713 10 0 60323 64800.00000 0 13620406.495 13252130.077 -17008117.403 10 0 60323 65700.00000 0 11516415.565 12527664.105 -18992514.814 10 0 60323 66600.00000 0 9149414.583 11907101.514 -20607715.062 10 0 60323 67500.00000 0 6571572.551 11430943.889 -21822232.628 10 0 60323 68400.00000 0 3842974.473 11130132.741 -22612366.313 10 0 60323 69300.00000 0 1029364.017 11024686.169 -22962666.950 10 0 60323 70200.00000 0 -1800349.145 11122813.350 -22866244.448 10 0 60323 71100.00000 0 -4576714.206 11420544.791 -22324907.852 10 0 60323 72000.00000 0 -7232387.466 11901894.546 -21349135.285 10 0 60323 72900.00000 0 -9704694.028 12539548.013 -19957873.934 10 0 60323 73800.00000 0 -11937996.455 13296046.672 -18178173.575 10 0 60323 74700.00000 0 -13885771.855 14125419.952 -16044660.435 10 0 60323 75600.00000 0 -15512310.990 14975195.266 -13598861.408 10 0 60323 76500.00000 0 -16793968.854 15788701.056 -10888391.748 10 0 60323 77400.00000 0 -17719915.012 16507565.010 -7966022.266 10 0 60323 78300.00000 0 -18292353.208 17074301.149 -4888644.643 10 0 60323 79200.00000 0 -18526202.220 17434875.581 -1716155.657 10 0 60323 80100.00000 0 -18448252.844 17541141.564 1489717.036 10 0 60323 81000.00000 0 -18095838.154 17353040.112 4666623.780 10 0 60323 81900.00000 0 -17515074.813 16840472.479 7752811.953 10 0 60323 82800.00000 0 -16758751.246 15984764.933 10688330.583 10 0 60323 83700.00000 0 -15883953.295 14779663.733 13416196.533 10 0 60323 84600.00000 0 -14949528.621 13231818.267 15883499.301 10 0 60323 85500.00000 0 -14013497.609 11360732.004 18042423.036 10 0 60324 0.00000 0 -13130520.212 9198183.533 19851166.267 10 0 60324 900.00000 0 -12349524.813 6787140.666 21274743.205 10 0 60324 1800.00000 0 -11711599.446 4180215.707 22285649.762 10 0 60324 2700.00000 0 -11248231.563 1437722.056 22864385.810 10 0 60324 3600.00000 0 -10979970.424 -1374584.904 22999822.263 10 0 60324 4500.00000 0 -10915566.648 -4187990.779 22689407.924 10 0 60324 5400.00000 0 -11051624.156 -6933426.996 21939212.779 10 0 60324 6300.00000 0 -11372778.320 -9544090.907 20763807.378 10 0 60324 7200.00000 0 -11852392.430 -11957973.974 19185980.785 10 0 60324 8100.00000 0 -12453743.127 -14120194.751 17236302.336 10 0 60324 9000.00000 0 -13131645.278 -15985041.306 14952535.156 10 0 60324 9900.00000 0 -13834448.472 -17517639.487 12378912.019 10 0 60324 10800.00000 0 -14506321.816 -18695178.740 9565286.687 10 0 60324 11700.00000 0 -15089731.524 -19507645.227 6566176.211 10 0 60324 12600.00000 0 -15528007.462 -19958032.212 3439711.929 10 0 60324 13500.00000 0 -15767890.801 -20062019.314 246518.786 10 0 60324 14400.00000 0 -15761955.324 -19847134.224 -2951455.799 10 0 60324 15300.00000 0 -15470799.894 -19351432.149 -6092141.036 10 0 60324 16200.00000 0 -14864918.855 -18621748.434 -9114546.621 10 0 60324 17100.00000 0 -13926170.364 -17711597.857 -11959947.884 10 0 60324 18000.00000 0 -12648779.352 -16678809.000 -14573028.905 10 0 60324 18900.00000 0 -11039831.206 -15582993.410 -16902961.094 10 0 60324 19800.00000 0 -9119233.582 -14482956.221 -18904395.945 10 0 60324 20700.00000 0 -6919146.037 -13434157.571 -20538352.285 10 0 60324 21600.00000 0 -4482899.552 -12486331.950 -21772980.488 10 0 60324 22500.00000 0 -1863449.386 -11681366.060 -22584188.477 10 0 60324 23400.00000 0 878575.592 -11051524.875 -22956117.033 10 0 60324 24300.00000 0 3677146.951 -10618100.928 -22881454.862 10 0 60324 25200.00000 0 6463340.378 -10390544.032 -22361586.910 10 0 60324 26100.00000 0 9167965.300 -10366108.332 -21406572.645 10 0 60324 27000.00000 0 11724211.410 -10530031.769 -20034954.308 10 0 60324 27900.00000 0 14070202.074 -10856240.446 -18273398.427 10 0 60324 28800.00000 0 16151348.287 -11308548.092 -16156177.248 10 0 60324 29700.00000 0 17922405.064 -11842299.714 -13724499.938 10 0 60324 30600.00000 0 19349144.550 -12406389.541 -11025706.537 10 0 60324 31500.00000 0 20409576.166 -12945567.265 -8112340.578 10 0 60324 32400.00000 0 21094663.302 -13402934.212 -5041118.845 10 0 60324 33300.00000 0 21408507.328 -13722522.839 -1871819.005 10 0 60324 34200.00000 0 21367992.373 -13851849.399 1333892.329 10 0 60324 35100.00000 0 21001907.193 -13744330.763 4513667.357 10 0 60324 36000.00000 0 20349582.684 -13361462.308 7605696.201 10 0 60324 36900.00000 0 19459104.007 -12674664.094 10549912.780 10 0 60324 37800.00000 0 18385174.199 -11666716.890 13289163.385 10 0 60324 38700.00000 0 17186720.483 -10332727.141 15770314.957 10 0 60324 39600.00000 0 15924345.060 -8680580.103 17945281.584 10 0 60324 40500.00000 0 14657728.092 -6730861.967 19771949.732 10 0 60324 41400.00000 0 13443092.080 -4516254.104 21214985.073 10 0 60324 42300.00000 0 12330833.692 -2080424.550 22246506.244 10 0 60324 43200.00000 0 11363421.564 523537.459 22846613.722 10 0 60324 44100.00000 0 10573647.046 3235079.321 23003764.735 10 0 60324 45000.00000 0 9983299.930 5988454.765 22714988.011 10 0 60324 45900.00000 0 9602323.282 8715212.276 21985935.082 10 0 60324 46800.00000 0 9428481.596 11346800.323 20830767.625 10 0 60324 47700.00000 0 9447555.264 13817182.754 19271883.213 10 0 60324 48600.00000 0 9634052.519 16065357.307 17339484.553 10 0 60324 49500.00000 0 9952408.750 18037674.130 15071000.027 10 0 60324 50400.00000 0 10358622.788 19689859.153 12510366.001 10 0 60324 51300.00000 0 10802261.669 20988659.221 9707183.902 10 0 60324 52200.00000 0 11228749.866 21913041.180 6715767.430 10 0 60324 53100.00000 0 11581846.939 22454895.379 3594097.556 10 0 60324 54000.00000 0 11806209.425 22619214.469 402704.843 10 0 60324 54900.00000 0 11849928.926 22423740.038 -2796499.762 10 0 60324 55800.00000 0 11666938.996 21898091.856 -5941423.202 10 0 60324 56700.00000 0 11219188.650 21082416.070 -8970994.487 10 0 60324 57600.00000 0 10478489.769 20025608.967 -11826351.300 10 0 60324 58500.00000 0 9427959.204 18783190.773 -14451985.698 10 0 60324 59400.00000 0 8062993.177 17414918.795 -16796826.350 10 0 60324 60300.00000 0 6391731.163 15982240.205 -18815235.953 10 0 60324 61200.00000 0 4434987.801 14545691.611 -20467904.072 10 0 60324 62100.00000 0 2225653.714 13162354.855 -21722617.720 10 0 60324 63000.00000 0 -192411.583 11883476.067 -22554894.426 10 0 60324 63900.00000 0 -2765950.104 10752348.222 -22948465.126 10 0 60324 64800.00000 0 -5434275.059 9802546.314 -22895597.209 10 0 60324 65700.00000 0 -8131558.821 9056589.394 -22397251.053 10 0 60324 66600.00000 0 -10789344.652 8525085.790 -21463066.604 10 0 60324 67500.00000 0 -13339178.108 8206397.360 -20111179.866 10 0 60324 68400.00000 0 -15715248.764 8086836.721 -18367872.424 10 0 60324 69300.00000 0 -17856932.153 8141388.819 -16267060.481 10 0 60324 70200.00000 0 -19711125.843 8334925.867 -13849633.142 10 0 60324 71100.00000 0 -21234282.002 8623863.679 -11162652.713 10 0 60324 72000.00000 0 -22394051.454 8958188.528 -8258432.833 10 0 60324 72900.00000 0 -23170470.612 9283767.794 -5193512.764 10 0 60324 73800.00000 0 -23556641.958 9544845.473 -2027548.485 10 0 60324 74700.00000 0 -23558880.300 9686615.725 1177856.941 10 0 60324 75600.00000 0 -23196319.693 9657764.338 4360360.000 10 0 60324 76500.00000 0 -22499998.858 9412869.489 7458095.902 10 0 60324 77400.00000 0 -21511465.021 8914559.354 10410885.710 10 0 60324 78300.00000 0 -20280956.347 8135334.693 13161407.292 10 0 60324 79200.00000 0 -18865240.757 7058979.018 15656307.052 10 0 60324 80100.00000 0 -17325203.020 5681496.608 17847230.848 10 0 60324 81000.00000 0 -15723282.161 4011538.738 19691754.541 10 0 60324 81900.00000 0 -14120866.906 2070300.050 21154196.893 10 0 60324 82800.00000 0 -12575758.111 -109110.823 22206300.071 10 0 60324 83700.00000 0 -11139803.696 -2482800.438 22827765.776 10 0 60324 84600.00000 0 -9856803.918 -4997673.056 23006637.795 10 0 60324 85500.00000 0 -8760773.250 -7593401.377 22739524.666 10 0 60325 0.00000 0 -7874630.036 -10204704.384 22031659.059 10 0 60325 900.00000 0 -7209366.825 -12763840.332 20896792.823 10 0 60325 1800.00000 0 -6763735.825 -15203209.201 19356930.918 10 0 60325 2700.00000 0 -6524460.027 -17457962.649 17441907.938 10 0 60325 3600.00000 0 -6466961.567 -19468510.881 15188815.759 10 0 60325 4500.00000 0 -6556575.839 -21182824.822 12641292.318 10 0 60325 5400.00000 0 -6750200.284 -22558438.509 9848684.470 10 0 60325 6300.00000 0 -6998308.595 -23564068.996 6865100.165 10 0 60325 7200.00000 0 -7247245.659 -24180786.530 3748367.485 10 0 60325 8100.00000 0 -7441706.687 -24402686.294 558920.000 10 0 60325 9000.00000 0 -7527295.954 -24237033.479 -2641370.481 10 0 60325 9900.00000 0 -7453056.947 -23703875.360 -5790391.353 10 0 60325 10800.00000 0 -7173866.606 -22835136.274 -8826993.688 10 0 60325 11700.00000 0 -6652591.747 -21673233.081 -11692180.274 10 0 60325 12600.00000 0 -5861915.551 -20269268.837 -14330253.843 10 0 60325 13500.00000 0 -4785755.594 -18680880.215 -16689902.902 10 0 60325 14400.00000 0 -3420212.040 -16969828.802 -18725203.724 10 0 60325 15300.00000 0 -1774004.167 -15199437.236 -20396518.660 10 0 60325 16200.00000 0 131625.036 -13431977.687 -21671273.019 10 0 60325 17100.00000 0 2263534.230 -11726122.212 -22524595.107 10 0 60325 18000.00000 0 4577814.667 -10134561.925 -22939806.676 10 0 60325 18900.00000 0 7021381.127 -8701894.799 -22908753.935 10 0 60325 19800.00000 0 9533957.806 -7462870.637 -22431972.330 10 0 60325 20700.00000 0 12050377.316 -6441066.721 -21518681.461 10 0 60325 21600.00000 0 14503097.620 -5648049.479 -20186609.853 10 0 60325 22500.00000 0 16824832.347 -5083057.032 -18461652.511 10 0 60325 23400.00000 0 18951184.744 -4733215.430 -16377367.595 10 0 60325 24300.00000 0 20823175.245 -4574278.758 -13974321.764 10 0 60325 25200.00000 0 22389556.743 -4571861.020 -11299296.864 10 0 60325 26100.00000 0 23608820.487 -4683106.727 -8404373.576 10 0 60325 27000.00000 0 24450808.457 -4858728.373 -5345910.305 10 0 60325 27900.00000 0 24897864.699 -5045323.289 -2183437.818 10 0 60325 28800.00000 0 24945477.650 -5187870.461 1021507.968 10 0 60325 29700.00000 0 24602387.114 -5232300.238 4206591.351 10 0 60325 30600.00000 0 23890152.368 -5128026.925 7309895.973 10 0 60325 31500.00000 0 22842200.672 -4830335.995 10271133.074 10 0 60325 32400.00000 0 21502397.460 -4302524.147 13032814.742 10 0 60325 33300.00000 0 19923199.513 -3517701.190 15541369.041 10 0 60325 34200.00000 0 18163469.709 -2460177.363 17748175.339 10 0 60325 35100.00000 0 16286045.803 -1126377.443 19610500.168 10 0 60325 36000.00000 0 14355165.426 474756.946 21092316.237 10 0 60325 36900.00000 0 12433855.006 2321893.854 22164989.687 10 0 60325 37800.00000 0 10581391.176 4381961.336 22807823.499 10 0 60325 38700.00000 0 8850939.667 6611294.922 23008447.709 10 0 60325 39600.00000 0 7287468.931 8957234.998 22763049.980 10 0 60325 40500.00000 0 5926023.921 11360108.545 22076442.923 10 0 60325 41400.00000 0 4790430.391 13755513.895 20961967.425 10 0 60325 42300.00000 0 3892482.210 16076814.764 19441234.035 10 0 60325 43200.00000 0 3231644.184 18257741.232 17543707.237 10 0 60325 44100.00000 0 2795281.631 20234990.792 15306140.134 10 0 60325 45000.00000 0 2559406.259 21950722.387 12771869.748 10 0 60325 45900.00000 0 2489906.494 23354840.504 9989985.695 10 0 60325 46800.00000 0 2544210.302 24406974.731 7014387.355 10 0 60325 47700.00000 0 2673310.465 25078072.491 3902746.989 10 0 60325 48600.00000 0 2824066.994 25351538.408 715398.183 10 0 60325 49500.00000 0 2941689.545 25223872.423 -2485829.386 10 0 60325 50400.00000 0 2972294.908 24704779.470 -5638806.473 10 0 60325 51300.00000 0 2865431.212 23816745.559 -8682308.963 10 0 60325 52200.00000 0 2576461.607 22594097.405 -11557207.265 10 0 60325 53100.00000 0 2068705.822 21081584.393 -14207617.018 10 0 60325 54000.00000 0 1315248.031 19332541.791 -16581988.475 10 0 60325 54900.00000 0 300333.268 17406711.730 -18634113.057 10 0 60325 55800.00000 0 -979708.110 15367812.899 -20324027.143 10 0 60325 56700.00000 0 -2516048.658 13280960.516 -21618795.248 10 0 60325 57600.00000 0 -4287484.001 11210044.382 -22493157.044 10 0 60325 58500.00000 0 -6261081.717 9215174.666 -22930025.338 10 0 60325 59400.00000 0 -8393333.556 7350302.190 -22920825.021 10 0 60325 60300.00000 0 -10631764.271 5661112.621 -22465666.047 10 0 60325 61200.00000 0 -12916931.058 4183282.561 -21573346.667 10 0 60325 62100.00000 0 -15184730.922 2941170.244 -20261186.446 10 0 60325 63000.00000 0 -17368920.134 1946995.236 -18554691.887 10 0 60325 63900.00000 0 -19403740.656 1200540.999 -16487060.782 10 0 60325 64800.00000 0 -21226543.644 689391.956 -14098534.721 10 0 60325 65700.00000 0 -22780299.978 389694.070 -11435612.247 10 0 60325 66600.00000 0 -24015892.244 267405.686 -8550138.140 10 0 60325 67500.00000 0 -24894091.736 279984.483 -5498286.990 10 0 60325 68400.00000 0 -25387137.253 378437.738 -2339461.436 10 0 60325 69300.00000 0 -25479849.370 509647.679 864872.563 10 0 60325 70200.00000 0 -25170233.588 618871.965 4052389.830 10 0 60325 71100.00000 0 -24469547.563 652312.059 7161125.017 10 0 60325 72000.00000 0 -23401830.390 559639.520 10130681.972 10 0 60325 72900.00000 0 -22002914.681 296372.366 12903409.259 10 0 60325 73800.00000 0 -20318963.982 -173999.652 15425518.641 10 0 60325 74700.00000 0 -18404597.856 -878231.060 17648124.766 10 0 60325 75600.00000 0 -16320683.965 -1831953.366 19528186.292 10 0 60325 76500.00000 0 -14131889.993 -3038782.123 21029330.957 10 0 60325 77400.00000 0 -11904097.754 -4489935.891 22122549.567 10 0 60325 78300.00000 0 -9701787.003 -6164383.197 22786746.666 10 0 60325 79200.00000 0 -7585497.140 -8029511.613 23009138.434 10 0 60325 80100.00000 0 -5609471.349 -10042291.480 22785491.186 10 0 60325 81000.00000 0 -3819579.674 -12150886.431 22120196.754 10 0 60325 81900.00000 0 -2251605.844 -14296644.582 21026183.843 10 0 60325 82800.00000 0 -929967.439 -16416388.541 19524667.278 10 0 60325 83700.00000 0 133078.866 -18444910.122 17644739.828 10 0 60325 84600.00000 0 937715.299 -20317567.118 15422813.995 10 0 60325 85500.00000 0 1496313.760 -21972875.007 12901923.853 99